Simultaneous Nadir Overpasses (SNOs) Predictions

Prediction of SNOs between TERRA and METOP-C Satellite Orbit:

Table of predicted SNOs for the next 14.0 days since TLE Epoch: 8/8/2020
Index Date (TERRA) Time (TERRA) Lat,Lon (TERRA) SZA (TERRA ) Date (METOP-C) Time (METOP-C) Lat,Lon (METOP-C) SZA (METOP-C ) Distance(km) Time Diff (sec)
1 08/09/2020 22:57:12 81.32,-116.72 68.58 08/09/2020 22:56:58 81.32,-116.56 68.59 2.66 14
2 08/09/2020 23:46:39 -81.31, 50.80 111.44 08/09/2020 23:47:38 -81.32, 50.78 111.41 0.84 59
3 08/12/2020 18:31:27 81.31, -50.32 69.42 08/12/2020 18:31:19 81.32, -50.14 69.44 3.06 8
4 08/12/2020 19:20:53 -81.33, 117.61 110.53 08/12/2020 19:21:58 -81.32, 117.62 110.50 0.84 65
5 08/15/2020 14:05:41 81.31, 16.04 70.29 08/15/2020 14:05:40 81.31, 15.88 70.27 2.74 1
6 08/15/2020 14:55:07 -81.33,-176.00 109.66 08/15/2020 14:56:18 -81.32,-175.95 109.62 1.06 71
7 08/18/2020 08:50:30 -81.30, -85.34 108.84 08/18/2020 08:49:20 -81.31, -85.18 108.85 2.88 70
8 08/18/2020 09:39:55 81.32, 82.74 71.24 08/18/2020 09:40:00 81.32, 82.67 71.23 1.51 5
9 08/21/2020 04:24:44 -81.31, -18.66 107.86 08/21/2020 04:23:41 -81.31, -18.77 107.91 1.85 63



Historial Predications of SNOs between TERRA and METOP-C
